Hourly Weather Ryabcevo

Today, 21 April, Wednesday

Time Temperature Precipitation Wind Pressure Humidity
00:00 +5°C° 0 mm 1 mps 743 mmHg 94%
01:00 +5°C° 0 mm 1 mps 743 mmHg 94%
02:00 +5°C° 0 mm 1 mps 742 mmHg 94%
03:00 +5°C° 0 mm 1 mps 742 mmHg 93%
04:00 +5°C° 0 mm 1 mps 742 mmHg 93%
05:00 +5°C° 0 mm 1 mps 741 mmHg 92%
06:00 +5°C° 0.1 mm 1 mps 741 mmHg 89%
07:00 +5°C° 0.1 mm 1 mps 741 mmHg 86%
08:00 +5°C° 0.1 mm 0 mps 741 mmHg 83%
09:00 +6°C° 0.1 mm 1 mps 741 mmHg 83%
10:00 +6°C° 0.1 mm 1 mps 741 mmHg 83%
11:00 +6°C° 0.1 mm 2 mps 741 mmHg 84%
12:00 +7°C° 0.1 mm 2 mps 741 mmHg 78%
13:00 +8°C° 0.1 mm 2 mps 741 mmHg 72%
14:00 +8°C° 0.1 mm 3 mps 741 mmHg 67%
15:00 +9°C° 0.1 mm 3 mps 741 mmHg 65%
16:00 +9°C° 0.1 mm 3 mps 741 mmHg 62%
17:00 +10°C° 0.1 mm 3 mps 741 mmHg 60%
18:00 +8°C° 0 mm 3 mps 741 mmHg 66%
19:00 +7°C° 0 mm 3 mps 741 mmHg 71%
20:00 +5°C° 0 mm 3 mps 741 mmHg 77%
21:00 +5°C° 0 mm 3 mps 741 mmHg 78%
22:00 +5°C° 0 mm 3 mps 741 mmHg 79%
23:00 +5°C° 0 mm 4 mps 741 mmHg 80%

Tomorrow, 22 April, Thursday

Time Temperature Precipitation Wind Pressure Humidity
00:00 +4°C° 0 mm 3 mps 741 mmHg 84%
01:00 +4°C° 0 mm 3 mps 741 mmHg 88%
02:00 +3°C° 0 mm 3 mps 741 mmHg 91%
03:00 +3°C° 0 mm 3 mps 741 mmHg 92%
04:00 +3°C° 0 mm 3 mps 741 mmHg 93%
05:00 +4°C° 0 mm 2 mps 741 mmHg 93%
06:00 +5°C° 0 mm 3 mps 742 mmHg 87%
07:00 +8°C° 0 mm 3 mps 742 mmHg 80%
08:00 +9°C° 0 mm 3 mps 742 mmHg 74%
09:00 +11°C° 0.2 mm 4 mps 742 mmHg 67%
10:00 +12°C° 0.2 mm 4 mps 742 mmHg 60%
11:00 +14°C° 0.2 mm 4 mps 742 mmHg 54%
12:00 +14°C° 0.4 mm 5 mps 742 mmHg 55%
13:00 +14°C° 0.4 mm 5 mps 741 mmHg 56%
14:00 +14°C° 0.4 mm 5 mps 741 mmHg 57%
15:00 +14°C° 0.4 mm 5 mps 741 mmHg 59%
16:00 +13°C° 0.4 mm 5 mps 741 mmHg 60%
17:00 +13°C° 0.4 mm 5 mps 741 mmHg 62%
18:00 +11°C° 0.1 mm 4 mps 742 mmHg 70%
19:00 +10°C° 0.1 mm 3 mps 742 mmHg 77%
20:00 +8°C° 0.1 mm 2 mps 742 mmHg 85%
21:00 +8°C° 0.1 mm 3 mps 742 mmHg 84%
22:00 +8°C° 0.1 mm 3 mps 742 mmHg 83%
23:00 +8°C° 0.1 mm 3 mps 742 mmHg 83%

Day after tomorrow, 23 April, Friday

Time Temperature Precipitation Wind Pressure Humidity
00:00 +7°C° 0 mm 3 mps 742 mmHg 80%
01:00 +5°C° 0 mm 3 mps 743 mmHg 77%
02:00 +4°C° 0 mm 3 mps 743 mmHg 75%
03:00 +4°C° 0 mm 3 mps 743 mmHg 77%
04:00 +3°C° 0 mm 3 mps 743 mmHg 79%
05:00 +3°C° 0 mm 3 mps 744 mmHg 81%
06:00 +3°C° 0 mm 4 mps 744 mmHg 76%
07:00 +4°C° 0 mm 4 mps 744 mmHg 72%
08:00 +5°C° 0 mm 4 mps 744 mmHg 67%
09:00 +5°C° 0 mm 5 mps 744 mmHg 62%
10:00 +6°C° 0 mm 5 mps 744 mmHg 57%
11:00 +7°C° 0 mm 5 mps 744 mmHg 52%
12:00 +7°C° 0 mm 5 mps 744 mmHg 51%
13:00 +7°C° 0 mm 5 mps 744 mmHg 50%
14:00 +7°C° 0 mm 5 mps 744 mmHg 49%
15:00 +7°C° 0.1 mm 4 mps 744 mmHg 52%
16:00 +7°C° 0.1 mm 4 mps 744 mmHg 55%
17:00 +7°C° 0.1 mm 4 mps 744 mmHg 57%
18:00 +5°C° 0 mm 3 mps 744 mmHg 62%
19:00 +5°C° 0 mm 2 mps 744 mmHg 67%
20:00 +4°C° 0 mm 2 mps 744 mmHg 72%
21:00 +4°C° 0 mm 2 mps 743 mmHg 75%
22:00 +3°C° 0 mm 2 mps 743 mmHg 78%
23:00 +2°C° 0 mm 2 mps 743 mmHg 80%

24 April, Saturday

Time Temperature Precipitation Wind Pressure Humidity
00:00 +2°C° 0 mm 2 mps 743 mmHg 83%
01:00 +1°C° 0 mm 2 mps 743 mmHg 86%
02:00 +1°C° 0 mm 2 mps 742 mmHg 89%
03:00 -1°C° 0 mm 3 mps 742 mmHg 92%
04:00 -1°C° 0 mm 3 mps 742 mmHg 95%
05:00 -1°C° 0 mm 3 mps 742 mmHg 97%
06:00 -1°C° 0.1 mm 3 mps 742 mmHg 94%
07:00 0°C° 0.1 mm 3 mps 742 mmHg 92%
08:00 +1°C° 0.1 mm 3 mps 742 mmHg 89%
09:00 0°C° 0.1 mm 4 mps 743 mmHg 83%
10:00 +1°C° 0.1 mm 4 mps 743 mmHg 78%
11:00 +1°C° 0.1 mm 4 mps 743 mmHg 72%
12:00 +3°C° 0.1 mm 4 mps 743 mmHg 72%
13:00 +2°C° 0.1 mm 5 mps 743 mmHg 72%
14:00 +2°C° 0.1 mm 5 mps 743 mmHg 71%
15:00 +2°C° 0.2 mm 5 mps 743 mmHg 73%
16:00 +2°C° 0.2 mm 5 mps 743 mmHg 75%
17:00 +2°C° 0.2 mm 5 mps 743 mmHg 77%
18:00 +1°C° 0 mm 4 mps 743 mmHg 81%
19:00 +2°C° 0 mm 3 mps 743 mmHg 84%
20:00 +1°C° 0 mm 3 mps 743 mmHg 87%
21:00 +1°C° 0 mm 3 mps 743 mmHg 88%
22:00 0°C° 0 mm 3 mps 743 mmHg 90%
23:00 0°C° 0 mm 3 mps 743 mmHg 91%

25 April, Sunday

Time Temperature Precipitation Wind Pressure Humidity
00:00 -1°C° 0 mm 3 mps 743 mmHg 92%
01:00 -1°C° 0 mm 3 mps 742 mmHg 93%
02:00 -2°C° 0 mm 3 mps 742 mmHg 94%
03:00 -2°C° 0 mm 3 mps 742 mmHg 94%
04:00 -4°C° 0 mm 3 mps 742 mmHg 95%
05:00 -3°C° 0 mm 2 mps 742 mmHg 95%
06:00 -1°C° 0 mm 3 mps 742 mmHg 87%
07:00 0°C° 0 mm 3 mps 742 mmHg 78%
08:00 0°C° 0 mm 4 mps 742 mmHg 69%
09:00 +1°C° 0.1 mm 4 mps 742 mmHg 68%
10:00 +1°C° 0.1 mm 4 mps 741 mmHg 68%
11:00 +3°C° 0.1 mm 4 mps 741 mmHg 67%
12:00 +3°C° 0.3 mm 4 mps 741 mmHg 66%
13:00 +4°C° 0.3 mm 4 mps 741 mmHg 65%
14:00 +4°C° 0.3 mm 3 mps 741 mmHg 64%
15:00 +4°C° 0.3 mm 4 mps 741 mmHg 66%
16:00 +4°C° 0.3 mm 4 mps 741 mmHg 68%
17:00 +4°C° 0.3 mm 4 mps 741 mmHg 71%
18:00 +3°C° 0.2 mm 4 mps 741 mmHg 79%
19:00 0°C° 0.2 mm 4 mps 742 mmHg 87%
20:00 0°C° 0.2 mm 3 mps 742 mmHg 95%
21:00 0°C° 0.2 mm 3 mps 742 mmHg 96%
22:00 0°C° 0.2 mm 3 mps 742 mmHg 96%
23:00 0°C° 0.2 mm 3 mps 742 mmHg 96%

26 April, Monday

Time Temperature Precipitation Wind Pressure Humidity
00:00 0°C° 0.1 mm 3 mps 742 mmHg 96%
01:00 0°C° 0.1 mm 3 mps 742 mmHg 96%
02:00 0°C° 0.1 mm 3 mps 742 mmHg 97%
03:00 -1°C° 0.1 mm 4 mps 742 mmHg 96%
04:00 -2°C° 0.1 mm 4 mps 743 mmHg 95%
05:00 -2°C° 0.1 mm 4 mps 743 mmHg 94%
06:00 -2°C° 0.1 mm 4 mps 743 mmHg 90%
07:00 -1°C° 0 mm 5 mps 743 mmHg 87%
08:00 -1°C° 0 mm 5 mps 743 mmHg 83%
09:00 -1°C° 0 mm 5 mps 743 mmHg 81%
10:00 0°C° 0 mm 5 mps 744 mmHg 80%
11:00 0°C° 0 mm 5 mps 744 mmHg 78%
12:00 +1°C° 0 mm 5 mps 744 mmHg 77%
13:00 +1°C° 0 mm 5 mps 744 mmHg 76%
14:00 +1°C° 0 mm 5 mps 744 mmHg 75%
15:00 +1°C° 0.2 mm 5 mps 743 mmHg 81%
16:00 +1°C° 0.2 mm 5 mps 743 mmHg 87%
17:00 +1°C° 0.2 mm 5 mps 743 mmHg 93%
18:00 0°C° 0.5 mm 4 mps 743 mmHg 94%
19:00 0°C° 0.5 mm 4 mps 743 mmHg 96%
20:00 0°C° 0.5 mm 4 mps 743 mmHg 97%
21:00 0°C° 0.3 mm 4 mps 743 mmHg 97%
22:00 0°C° 0.3 mm 4 mps 743 mmHg 97%
23:00 0°C° 0.3 mm 4 mps 743 mmHg 97%
Show more